Wind_Speed
34 34 33 33 34 34 34 34 34 33 32 32 32 31 30 30 30 30 30 30 29 29 29 29 29 29 29 30 30 30 29 29 28 27 27 26 25 26 26 25 25 25 24
36 35 36 36 36 36 36 36 34 34 33 33 33 33 33 33 31 31 31 31 32 32 32 32 32 32 32 31 31 31 31 30 30 30 29 28 27 27 28 27 28 27 26
39 37 38 39 38 38 37 37 37 35 35 35 35 35 35 35 34 34 34 34 34 34 35 35 35 34 34 34 33 33 33 33 33 33 32 31 31 30 30 29 29 29 29
41 40 39 40 40 40 39 38 38 38 37 37 37 37 36 36 36 36 36 36 36 36 37 37 37 37 37 37 36 36 36 36 36 35 35 34 34 33 33 33 31 31 31
44 42 42 42 42 42 41 40 39 39 40 40 39 39 38 38 38 38 38 38 38 38 38 39 39 40 40 40 39 39 39 39 38 38 38 37 37 36 36 36 35 33 33
46 45 44 44 44 44 43 42 41 41 42 42 42 42 42 41 41 40 40 41 40 40 40 41 42 42 42 42 42 42 41 41 40 40 39 39 39 39 38 38 38 37 36
47 46 45 45 46 46 45 45 45 45 44 45 45 44 44 44 44 43 43 43 42 42 43 43 43 44 44 44 44 44 43 42 42 42 42 42 42 41 40 40 39 39 38
49 49 47 48 48 47 47 47 47 46 46 47 47 47 47 47 47 46 45 45 44 44 45 45 46 47 47 47 46 46 45 44 43 43 43 43 43 42 42 41 41 40 40
50 51 50 50 50 50 50 49 49 49 49 49 49 49 49 49 49 49 48 48 47 47 46 46 47 48 49 49 49 48 48 47 46 45 45 45 44 44 43 42 41 41 41
51 51 51 50 51 51 51 51 51 51 51 51 51 51 51 51 51 51 50 50 50 49 49 49 48 48 49 50 51 50 50 49 48 47 47 47 46 46 45 44 43 43 42
51 52 51 50 50 50 51 51 51 51 52 52 52 52 52 53 52 52 52 52 51 51 51 51 50 50 50 51 52 52 51 51 51 50 50 49 48 48 47 46 45 44 44
52 52 52 51 50 51 51 51 52 52 53 53 53 53 53 54 54 54 53 53 53 52 52 51 51 51 51 51 52 52 52 52 51 51 51 51 50 49 48 48 47 46 45
52 53 53 53 53 53 53 53 53 54 55 55 55 55 55 55 55 56 56 55 54 54 53 53 52 52 52 52 52 53 53 53 53 53 52 52 52 51 50 50 49 48 48
52 52 53 54 54 54 54 55 55 55 55 55 56 56 56 57 57 57 57 56 56 56 55 54 54 53 53 52 53 53 54 54 53 53 54 54 54 53 52 52 51 51 50
53 53 53 54 54 54 54 54 55 55 55 55 55 56 56 56 57 57 57 58 58 57 56 56 56 55 54 54 54 53 53 54 54 55 55 55 56 55 55 55 54 53 53
53 53 53 54 54 54 54 55 55 55 55 55 56 56 56 56 56 57 57 57 58 58 57 56 56 56 55 55 55 54 54 55 55 56 56 56 56 57 56 56 56 55 55
52 53 53 54 54 53 53 54 54 55 55 55 55 55 56 55 56 56 56 57 57 57 57 56 56 57 56 56 55 55 55 55 56 57 57 58 58 57 57 57 57 56 55
52 52 53 53 54 54 53 53 53 53 54 55 56 56 56 56 56 57 57 57 56 56 57 56 56 57 57 56 56 56 56 56 56 57 58 59 59 58 58 57 57 57 56
52 52 53 53 54 54 54 54 54 54 54 55 56 56 56 57 56 57 57 57 55 55 56 57 56 56 57 57 58 58 58 57 57 57 58 58 59 59 59 58 57 57 58
52 52 53 54 54 54 55 55 56 56 56 56 57 57 57 58 58 57 56 56 56 56 55 56 57 56 56 57 58 58 58 58 58 58 58 59 60 60 60 58 58 58 58
52 53 54 54 54 55 55 56 56 57 57 56 57 57 58 58 58 58 58 57 58 58 57 58 58 58 57 58 58 59 59 58 58 58 58 58 59 60 59 59 59 59 59
52 53 53 54 54 54 55 55 56 57 57 57 57 58 59 59 59 59 59 59 60 60 59 59 58 59 58 59 60 60 60 59 59 59 58 57 57 58 59 59 60 60 61
52 52 53 54 54 55 55 56 56 57 57 57 57 58 58 58 59 59 60 60 61 61 61 60 59 59 59 59 60 60 60 60 59 59 59 58 58 58 59 60 61 61 62
51 51 53 53 53 53 54 54 55 56 56 57 57 58 58 58 59 59 60 61 61 60 60 60 60 60 60 59 60 60 60 60 60 59 60 60 59 59 59 59 60 61 61
51 51 51 52 52 52 53 53 54 55 55 55 56 56 57 57 58 59 60 60 60 60 60 60 60 60 60 60 60 60 60 61 60 60 60 60 59 59 59 59 59 60 61
50 50 50 51 52 52 52 52 53 54 54 54 55 55 56 56 57 58 59 59 58 58 58 59 60 60 60 60 61 61 61 61 60 59 59 59 59 59 59 58 59 59 60
Wind_Direction
257 259 260 260 259 259 260 260 260 259 258 257 258 258 257 258 259 258 256 255 254 253 252 252 253 254 254 255 255 255 254 254 254 254 254 254 255 256 255 257 259 261 260
258 258 259 259 260 260 260 259 259 259 258 258 258 258 257 257 259 258 258 258 256 255 253 253 254 255 256 256 256 256 256 256 256 257 255 255 256 256 257 258 260 261 261
259 258 260 261 261 260 259 258 258 258 258 258 258 259 259 259 259 259 259 259 259 258 258 258 257 257 257 257 258 258 257 257 258 258 257 258 258 258 259 259 260 261 261
259 258 259 261 260 259 258 258 259 258 259 258 258 259 260 260 260 260 260 260 260 259 259 258 258 258 258 258 258 258 258 258 258 259 259 259 259 259 260 260 260 261 261
258 259 259 259 260 259 258 259 259 259 260 259 258 259 260 261 261 260 260 260 260 260 260 259 258 258 258 258 257 257 258 259 260 259 259 259 260 260 259 260 260 261 261
258 259 258 258 258 258 258 259 260 260 260 260 259 259 260 260 260 261 261 261 261 261 261 260 260 259 259 258 257 256 257 258 259 259 259 259 260 260 260 260 260 261 262
258 258 258 257 258 258 259 259 260 260 261 260 260 260 260 261 262 262 262 262 263 262 261 261 261 260 259 258 258 256 257 258 258 259 260 259 259 259 260 260 260 260 262
258 258 258 258 258 259 259 259 260 261 261 261 260 260 260 260 261 263 263 263 263 264 263 263 262 262 260 259 258 257 257 256 256 258 259 259 259 259 258 259 259 260 262
259 259 259 259 259 259 259 260 260 261 261 261 261 261 260 261 262 262 262 262 263 263 263 263 263 263 261 260 259 258 257 257 257 258 259 259 259 259 258 258 259 261 263
260 260 260 261 260 260 260 260 261 261 261 262 261 261 261 261 261 261 261 262 262 261 262 263 263 262 260 259 259 259 258 258 258 258 259 259 259 259 259 260 260 261 263
261 261 261 261 261 261 261 260 260 261 261 261 262 261 261 261 261 261 261 261 262 262 262 263 263 262 260 259 259 259 258 257 257 258 258 258 259 259 260 261 261 261 263
261 261 260 260 261 261 261 261 260 261 261 261 262 261 262 262 262 262 262 261 260 261 262 263 263 262 261 260 259 259 258 257 256 257 258 258 259 259 260 260 260 261 261
262 262 261 261 261 261 261 261 261 261 262 262 262 261 262 262 263 263 263 262 261 261 262 262 262 263 262 261 260 259 258 257 256 257 257 257 257 259 260 261 261 261 261
262 262 262 263 263 262 262 263 263 263 263 262 262 262 262 263 263 263 263 262 262 261 261 261 261 262 262 262 261 260 258 257 257 256 256 257 257 258 259 260 261 262 262
263 263 263 263 264 263 263 262 263 263 263 264 264 263 263 263 263 262 262 262 262 262 261 260 261 261 262 261 260 260 259 258 257 257 257 257 257 258 259 260 261 261 261
263 263 263 263 263 263 263 263 263 264 264 264 264 264 264 264 263 262 262 262 262 262 261 260 260 260 261 261 261 260 259 258 257 257 257 257 257 258 259 260 260 260 260
264 263 263 263 263 263 263 263 263 262 262 263 264 264 264 264 263 263 262 262 263 263 262 260 260 259 260 260 260 260 260 259 258 258 257 257 257 258 258 259 260 260 260
264 263 263 262 262 263 263 263 263 263 262 263 263 263 263 264 264 263 262 262 261 262 262 261 259 259 259 259 259 259 259 259 258 258 257 256 256 257 258 259 259 260 260
265 264 263 263 263 263 263 264 263 263 263 263 263 264 264 264 263 263 263 262 262 262 262 262 260 260 260 259 259 259 259 259 259 258 257 257 257 258 258 258 258 259 259
266 265 265 264 265 265 264 264 264 264 264 264 264 264 264 264 264 264 264 263 262 262 262 262 262 261 260 260 260 260 260 260 260 259 258 258 258 258 257 258 258 259 260
267 266 265 265 265 265 265 265 265 265 265 265 265 265 264 264 264 264 264 263 262 263 263 263 263 262 261 261 260 259 260 260 260 260 259 259 259 258 257 258 258 258 259
268 267 266 266 266 265 266 266 266 265 265 265 265 264 264 264 263 263 264 263 262 263 263 264 264 263 262 261 260 260 259 260 259 259 259 258 258 258 258 258 258 258 259
269 267 267 266 266 266 266 267 266 266 265 265 265 264 264 263 263 263 263 264 263 263 263 264 264 263 262 261 260 260 260 259 260 259 259 258 258 259 259 258 259 259 259
269 267 266 267 267 266 266 267 267 266 266 265 265 265 264 263 263 263 263 263 263 264 264 264 264 264 262 261 261 260 259 259 259 259 259 259 259 259 259 259 259 259 259
269 267 266 267 267 267 267 268 268 267 266 266 266 265 265 264 264 264 264 264 263 263 264 264 263 263 262 261 261 261 260 260 259 259 260 259 258 258 258 259 260 260 260
269 266 266 266 267 267 268 268 268 268 267 266 266 265 264 264 264 264 265 264 263 263 263 264 263 262 261 262 262 261 261 261 260 259 258 259 258 258 258 259 260 261 261
Height
5782 5783 5784 5785 5786 5788 5789 5790 5791 5793 5794 5795 5797 5798 5799 5800 5802 5803 5804 5806 5807 5809 5811 5813 5814 5816 5818 5820 5821 5823 5825 5826 5827 5828 5830 5830 5831 5832 5833 5834 5834 5835 5835
5774 5776 5777 5778 5779 5780 5781 5782 5784 5785 5786 5788 5789 5791 5792 5793 5795 5796 5797 5799 5800 5802 5803 5805 5807 5809 5811 5813 5814 5816 5818 5819 5820 5822 5823 5824 5825 5826 5827 5827 5828 5829 5829
5766 5767 5768 5769 5770 5771 5772 5773 5775 5777 5778 5780 5782 5783 5785 5786 5787 5788 5790 5791 5793 5794 5796 5797 5800 5802 5804 5805 5807 5809 5810 5812 5813 5814 5816 5817 5818 5819 5820 5821 5822 5822 5823
5757 5758 5759 5760 5761 5762 5763 5765 5766 5768 5770 5771 5773 5775 5776 5777 5778 5780 5782 5783 5784 5786 5787 5789 5791 5793 5795 5797 5799 5801 5802 5804 5805 5807 5808 5809 5811 5812 5813 5814 5814 5815 5816
5746 5748 5748 5750 5751 5752 5754 5756 5757 5759 5761 5762 5764 5766 5767 5768 5770 5771 5773 5774 5775 5777 5778 5780 5782 5784 5786 5788 5790 5792 5793 5795 5796 5798 5799 5801 5802 5804 5805 5806 5807 5807 5808
5736 5736 5738 5739 5741 5742 5744 5746 5748 5749 5751 5752 5754 5756 5757 5759 5760 5762 5763 5765 5766 5767 5769 5770 5772 5774 5776 5778 5780 5782 5784 5785 5786 5788 5790 5792 5793 5795 5796 5797 5798 5799 5800
5724 5725 5727 5728 5730 5732 5734 5735 5737 5739 5740 5742 5744 5745 5747 5748 5750 5751 5753 5754 5755 5757 5758 5759 5761 5763 5765 5767 5769 5772 5773 5775 5776 5778 5780 5782 5784 5785 5786 5788 5789 5790 5791
5712 5714 5715 5717 5719 5721 5722 5724 5726 5727 5729 5731 5732 5734 5735 5738 5739 5740 5742 5743 5745 5746 5747 5748 5750 5752 5754 5756 5758 5760 5762 5764 5766 5767 5769 5771 5773 5775 5776 5778 5779 5781 5782
5700 5701 5703 5705 5707 5709 5710 5712 5714 5715 5717 5718 5720 5721 5723 5725 5727 5729 5730 5731 5733 5734 5735 5737 5738 5740 5742 5744 5746 5748 5750 5753 5755 5756 5758 5760 5762 5764 5765 5767 5769 5771 5772
5687 5688 5690 5692 5694 5696 5697 5699 5701 5702 5704 5705 5707 5708 5710 5712 5714 5717 5718 5719 5720 5722 5723 5724 5726 5727 5729 5731 5733 5736 5738 5740 5743 5745 5747 5749 5751 5753 5754 5756 5758 5760 5761
5674 5675 5677 5679 5680 5682 5683 5685 5687 5688 5690 5692 5693 5695 5696 5698 5700 5702 5705 5706 5707 5709 5710 5711 5713 5715 5716 5718 5721 5723 5725 5728 5730 5732 5734 5737 5739 5741 5743 5745 5747 5748 5750
5661 5662 5664 5665 5667 5668 5669 5671 5672 5674 5676 5677 5679 5680 5682 5684 5686 5687 5690 5692 5694 5696 5697 5698 5700 5702 5703 5705 5707 5709 5712 5714 5717 5719 5721 5724 5726 5729 5731 5733 5735 5736 5738
5647 5649 5650 5651 5653 5654 5656 5657 5658 5659 5661 5662 5664 5665 5667 5669 5670 5672 5674 5676 5679 5682 5683 5685 5686 5688 5689 5691 5693 5695 5698 5701 5703 5705 5708 5710 5713 5716 5718 5720 5722 5724 5725
5633 5634 5635 5637 5638 5640 5641 5642 5643 5644 5645 5647 5648 5650 5651 5653 5654 5656 5658 5660 5663 5666 5669 5671 5672 5674 5675 5677 5679 5681 5684 5686 5688 5691 5693 5696 5699 5702 5704 5706 5708 5710 5712
5619 5620 5621 5622 5624 5625 5626 5627 5628 5629 5630 5631 5633 5634 5635 5636 5638 5639 5641 5643 5646 5649 5653 5656 5657 5659 5660 5662 5664 5666 5669 5671 5674 5676 5679 5681 5684 5687 5689 5692 5694 5696 5698
5604 5605 5606 5608 5609 5610 5611 5612 5613 5614 5615 5616 5617 5619 5620 5621 5622 5623 5625 5627 5629 5631 5636 5640 5641 5643 5644 5646 5648 5651 5653 5656 5658 5661 5663 5666 5668 5671 5674 5676 5678 5681 5683
5590 5591 5592 5593 5594 5595 5596 5597 5598 5598 5600 5601 5602 5603 5605 5605 5607 5608 5609 5611 5613 5614 5617 5622 5624 5626 5628 5631 5633 5635 5637 5640 5642 5645 5647 5649 5652 5655 5657 5660 5662 5665 5667
5575 5576 5577 5578 5579 5580 5581 5581 5582 5583 5584 5585 5586 5588 5589 5590 5591 5592 5593 5595 5597 5598 5600 5604 5608 5609 5612 5614 5616 5619 5621 5623 5625 5628 5630 5633 5635 5638 5641 5643 5646 5649 5652
5560 5561 5562 5563 5564 5565 5565 5566 5567 5568 5569 5570 5571 5572 5573 5574 5575 5576 5577 5579 5581 5582 5584 5586 5590 5593 5595 5597 5599 5602 5604 5606 5608 5611 5613 5616 5619 5621 5625 5627 5630 5633 5636
5546 5546 5547 5548 5548 5549 5550 5550 5551 5552 5553 5554 5555 5555 5556 5557 5559 5560 5561 5563 5565 5566 5568 5570 5573 5575 5578 5580 5582 5584 5587 5589 5591 5594 5596 5599 5602 5604 5608 5611 5614 5617 5619
5531 5531 5532 5532 5533 5533 5534 5534 5535 5536 5537 5537 5538 5539 5540 5541 5542 5543 5545 5547 5548 5550 5551 5553 5555 5558 5560 5562 5565 5567 5569 5572 5575 5577 5579 5582 5585 5588 5590 5593 5596 5599 5602
5515 5515 5516 5516 5517 5518 5518 5518 5519 5519 5520 5521 5522 5522 5523 5524 5525 5527 5528 5529 5531 5532 5534 5536 5538 5540 5543 5545 5547 5549 5552 5555 5559 5562 5562 5565 5567 5570 5573 5576 5579 5582 5585
5499 5499 5500 5500 5501 5501 5502 5502 5502 5502 5503 5504 5504 5505 5506 5507 5508 5509 5511 5512 5513 5514 5516 5518 5520 5522 5525 5528 5530 5532 5534 5536 5540 5543 5544 5548 5550 5553 5556 5558 5561 5564 5567
5484 5484 5484 5485 5485 5485 5485 5485 5485 5485 5486 5486 5487 5487 5488 5490 5491 5492 5493 5494 5496 5498 5499 5501 5503 5505 5507 5508 5511 5513 5515 5518 5522 5524 5526 5530 5533 5535 5538 5540 5542 5546 5549
5469 5469 5469 5469 5469 5470 5469 5469 5468 5469 5469 5470 5470 5470 5471 5472 5474 5474 5475 5477 5479 5480 5481 5483 5485 5486 5488 5491 5492 5494 5497 5500 5504 5507 5508 5511 5515 5517 5520 5523 5525 5527 5530
5454 5453 5453 5454 5454 5454 5453 5453 5452 5452 5453 5454 5454 5454 5454 5455 5456 5456 5457 5459 5461 5463 5464 5466 5467 5468 5470 5472 5474 5476 5479 5481 5485 5489 5491 5493 5496 5498 5503 5506 5507 5509 5512